DateTimeUTC,F1_A11,F1_S11,BsB_S11,BsG_S11,BsR_S11,BbsB_S11,BbsG_S11,BbsR_S11,BaB_A11,BaG_A11,BaR_A11,Tu_S11,T_S11,Uu_S11,U_S11,P_S11,T1_A11
2021-06-30T10:00:00Z,00000200,20000000,,,,,,,-000.24,-000.04,-000.09,17.7,24.4,05.6,03.7,0660.2,31.0
2021-06-30T10:01:00Z,00000200,20000000,,,,,,,-000.08,0000.13,-000.25,17.7,24.4,05.6,03.7,0660.2,31.0
2021-06-30T10:02:00Z,00000200,20000000,,,,,,,0000.34,-000.20,0000.48,17.7,24.4,05.4,03.6,0660.2,31.0
2021-06-30T10:03:00Z,00000200,60000000,,,,,,,-000.03,0000.23,-000.01,17.7,24.4,05.3,03.5,0660.2,31.1
2021-06-30T10:04:00Z,00000200,40000000,0000.96,0000.63,0000.73,0000.42,0000.07,0000.43,0000.10,0000.17,0000.18,17.9,24.3,05.4,03.7,0661.2,31.1
2021-06-30T10:05:00Z,00000200,00000000,0000.60,0000.32,0000.32,0000.67,0000.11,0000.39,0000.04,-000.13,-000.23,18.0,24.3,05.4,03.7,0661.2,31.1
2021-06-30T10:06:00Z,00000200,00000000,0001.12,0000.59,0000.43,0000.24,0000.14,0000.31,0000.40,0000.38,0000.18,18.0,24.3,05.5,03.8,0661.3,31.1
2021-06-30T10:07:00Z,00000200,00000000,0000.95,0000.71,0000.45,0000.21,0000.11,0000.28,0000.04,0000.10,-000.18,18.0,24.2,05.5,03.8,0661.3,31.1
2021-06-30T10:08:00Z,00000200,00000000,0000.65,0000.19,0000.56,0000.38,0000.19,0000.37,0000.07,0000.15,0000.73,18.0,24.2,05.6,03.8,0661.4,31.1
2021-06-30T10:09:00Z,00000200,00000000,0000.79,0000.35,0000.63,0000.71,0000.31,0000.47,0000.14,0000.04,-000.40,17.9,24.2,05.5,03.8,0661.4,31.1
2021-06-30T10:10:00Z,00000200,00000000,0001.00,0000.18,0000.06,0000.57,-000.03,0000.12,0000.10,0000.88,0000.44,17.9,24.2,05.5,03.8,0661.4,31.0
2021-06-30T10:11:00Z,00000200,00000000,0002.00,0000.26,0000.68,-000.13,-000.03,0000.29,0000.26,-000.61,-000.16,17.9,24.2,05.6,03.8,0661.4,31.0
2021-06-30T10:12:00Z,00000200,00000000,0000.59,0000.47,0000.21,0000.29,-000.23,0000.33,0000.02,0000.23,0000.31,17.9,24.1,05.6,03.8,0661.4,31.0
2021-06-30T10:13:00Z,00000200,00000000,0001.09,0000.60,0000.32,-000.25,0000.28,0000.05,0000.24,0000.00,0000.15,17.9,24.1,05.7,03.9,0661.4,31.0
2021-06-30T10:14:00Z,00000200,00000000,0000.95,0000.49,0000.49,0000.79,0000.09,0000.16,0000.04,0000.18,-000.14,17.9,24.1,05.7,03.9,0661.4,31.0
2021-06-30T10:15:00Z,00000200,00000000,0001.06,0000.45,0000.40,0000.81,0000.09,0000.25,0000.33,-000.12,0000.10,17.9,24.1,05.6,03.8,0661.4,31.0
2021-06-30T10:16:00Z,00000200,00000000,0001.09,0000.37,0000.36,0000.08,0000.27,0000.25,-000.11,0000.45,-000.14,17.9,24.1,05.6,03.8,0661.4,31.0
2021-06-30T10:17:00Z,00000200,00000000,0001.01,0000.37,0000.16,0000.65,0000.03,0000.13,0000.11,0000.31,0000.18,17.9,24.1,05.6,03.9,0661.4,31.0
2021-06-30T10:18:00Z,00000200,00000000,0000.37,0000.41,0000.27,0000.02,0000.21,0000.37,0000.24,-000.22,0000.02,17.9,24.1,05.6,03.8,0661.5,31.1
2021-06-30T10:19:00Z,00000200,00000000,0000.93,0000.42,0000.10,0000.05,0000.02,0000.40,0000.21,0000.14,0000.05,17.9,24.2,05.6,03.8,0661.4,31.0
2021-06-30T10:20:00Z,00000200,00000000,0001.04,0000.46,0000.57,0000.08,0000.12,0000.26,-000.11,0000.10,0000.16,18.0,24.2,05.6,03.8,0661.4,31.0
2021-06-30T10:21:00Z,00000200,00000000,0000.42,0000.59,0000.09,0000.17,0000.20,0000.12,0000.39,-000.03,0000.24,17.9,24.2,05.5,03.8,0661.5,31.0
2021-06-30T10:22:00Z,00000200,00000000,0001.36,0000.71,0000.43,0000.88,-000.02,0000.34,-000.03,0000.06,0000.16,17.9,24.2,05.4,03.7,0661.4,31.0
2021-06-30T10:23:00Z,00000200,00000000,0001.37,0000.72,0000.71,0000.22,0000.20,0000.51,0000.22,0000.35,0000.20,17.9,24.1,05.5,03.8,0661.5,31.0
2021-06-30T10:24:00Z,00000200,00000000,0001.49,0000.61,0000.20,-000.02,0000.08,0000.14,0000.19,0000.09,-000.07,17.9,24.1,05.5,03.8,0661.6,31.0
2021-06-30T10:25:00Z,00000200,00000000,0001.27,0000.47,0000.35,0000.57,0000.16,0000.44,-000.19,0000.08,0000.12,17.9,24.1,05.5,03.7,0661.5,31.0
2021-06-30T10:26:00Z,00000200,00000000,0000.97,0000.50,0000.41,0000.48,0000.18,0000.02,0000.22,0000.08,-000.24,17.9,24.1,05.5,03.8,0661.6,31.0
2021-06-30T10:27:00Z,00000200,00000000,0000.74,0000.32,0000.65,0000.25,0000.07,0000.27,0000.40,0000.13,0000.14,17.9,24.1,05.5,03.8,0661.6,31.0
2021-06-30T10:28:00Z,00000200,00000000,0001.65,0000.61,0000.36,0000.49,-000.02,-000.17,-000.04,0000.08,0000.37,17.9,24.1,05.5,03.7,0661.5,31.0
2021-06-30T10:29:00Z,00000200,00000000,0000.95,0000.34,0000.32,0000.20,0000.03,0000.23,-000.24,0000.27,-000.00,17.9,24.1,05.5,03.8,0661.6,31.0
2021-06-30T10:30:00Z,00000200,00000000,0001.22,0000.43,0000.62,0000.15,0000.24,0000.15,0000.49,-000.36,0000.08,17.8,24.0,05.5,03.8,0661.6,31.0
2021-06-30T10:31:00Z,00000200,00000000,0000.97,0000.66,0000.34,0000.40,0000.11,0000.21,-000.17,0000.52,0000.05,17.8,24.0,05.4,03.7,0661.5,31.0
2021-06-30T10:32:00Z,00000200,00000000,0000.94,0000.42,0000.29,0000.51,0000.18,0000.25,0000.24,0000.16,0000.25,17.8,24.0,05.5,03.7,0661.6,31.0
2021-06-30T10:33:00Z,00000200,00000000,0001.22,0000.55,0000.20,0000.44,0000.17,-000.10,0000.01,-000.15,-000.21,17.8,24.0,05.4,03.7,0661.6,31.0
2021-06-30T10:34:00Z,00000200,00000000,0000.53,0000.55,0000.55,0000.38,0000.13,0000.37,0000.11,0000.37,0000.44,17.8,24.0,05.6,03.8,0661.7,31.0
2021-06-30T10:35:00Z,00000200,00000000,0001.57,0000.45,0000.53,0000.38,0000.21,0000.13,0000.10,0000.24,-000.28,17.8,24.0,05.5,03.8,0661.6,31.0
2021-06-30T10:36:00Z,00000200,00000000,0001.02,0000.40,0000.24,-000.33,-000.01,0000.13,0000.68,-000.25,0000.24,17.8,24.0,05.5,03.8,0661.7,31.0
2021-06-30T10:37:00Z,00000200,00000000,0000.83,0000.34,0000.37,0000.18,0000.15,-000.02,-000.19,0000.22,-000.03,17.7,24.0,05.5,03.8,0661.7,31.0
2021-06-30T10:38:00Z,00000200,00000000,0001.26,0000.75,0000.27,0000.14,0000.11,0000.38,0000.08,0000.37,0000.16,17.7,23.9,05.5,03.8,0661.7,31.0
2021-06-30T10:39:00Z,00000200,00000000,0001.83,0000.32,0000.35,0001.10,0000.20,-000.07,0000.09,0000.19,0000.06,17.7,23.9,05.6,03.8,0661.8,31.0
2021-06-30T10:40:00Z,00000200,00000000,0000.91,0000.44,0000.14,0000.00,0000.10,0000.20,0000.26,-000.23,0000.03,17.7,23.9,05.6,03.8,0661.7,31.0
2021-06-30T10:41:00Z,00000200,00000000,0001.13,0000.50,0000.66,0000.49,0000.00,0000.26,0000.14,0000.38,0000.27,17.7,23.9,05.6,03.8,0661.8,31.0
2021-06-30T10:42:00Z,00000200,00000000,0001.31,0000.62,0000.47,0000.67,0000.03,0000.10,0000.43,-000.06,0000.26,17.7,23.9,05.7,03.9,0661.8,31.0
2021-06-30T10:43:00Z,00000200,00000000,0001.10,0000.51,0000.09,0000.60,-000.08,0000.25,-000.02,-000.01,-000.01,17.7,23.9,05.7,03.9,0661.7,31.0
2021-06-30T10:44:00Z,00000200,00000000,0001.42,0000.27,0000.16,0000.00,-000.15,0000.03,-000.04,0000.30,-000.09,17.7,23.9,05.7,03.9,0661.8,31.0
2021-06-30T10:45:00Z,00000200,00000000,0001.75,0000.34,0000.17,-000.14,-000.07,0000.00,0000.21,0000.33,0000.02,17.7,23.8,05.7,03.9,0661.9,31.0
2021-06-30T10:46:00Z,00000200,00000000,0001.08,0000.48,0000.38,0000.24,0000.15,0000.36,0000.01,-000.10,0000.34,17.6,23.8,05.9,04.0,0661.9,31.0
2021-06-30T10:47:00Z,00000200,00000000,0001.01,0000.52,-000.07,0000.70,0000.05,0000.22,0000.16,0000.28,0000.09,17.6,23.8,05.8,04.0,0661.9,31.0
2021-06-30T10:48:00Z,00000200,00000000,0000.59,0000.08,0000.35,0000.87,0000.00,-000.10,0000.06,-000.19,-000.03,17.6,23.8,05.8,04.0,0661.9,31.0
2021-06-30T10:49:00Z,00000200,00000000,0000.93,0000.22,0000.44,-000.02,0000.16,0000.30,0000.36,0000.08,0000.13,17.6,23.8,05.8,04.0,0661.9,31.0
2021-06-30T10:50:00Z,00000200,00000000,0000.88,0000.17,0000.44,-000.21,-000.03,0000.35,0000.10,0000.25,0000.10,17.6,23.8,05.8,03.9,0661.9,31.0
2021-06-30T10:51:00Z,00000200,00000000,0001.37,0000.50,0000.31,0000.33,-000.07,-000.03,0000.04,0000.15,0000.15,17.6,23.8,05.8,04.0,0661.9,31.0
2021-06-30T10:52:00Z,00000200,00000000,0000.88,0000.67,0000.24,0000.06,0000.32,0000.27,0000.29,0000.10,0000.15,17.6,23.8,05.8,04.0,0661.9,31.0
2021-06-30T10:53:00Z,00000200,00000000,0001.16,0000.63,0000.13,0000.49,0000.16,-000.05,-000.16,0000.03,0000.12,17.6,23.8,05.9,04.0,0661.9,31.0
2021-06-30T10:54:00Z,00000200,00000000,0001.63,0000.36,0000.50,0000.35,-000.11,0000.33,0000.41,0000.35,0000.05,17.6,23.8,05.8,04.0,0661.9,31.0
2021-06-30T10:55:00Z,00000200,00000000,0001.01,0000.44,0000.50,0000.26,-000.01,0000.32,0000.03,-000.16,-000.05,17.6,23.7,05.8,04.0,0661.9,31.0
2021-06-30T10:56:00Z,00000200,00000000,0000.59,0000.33,0000.39,0000.38,-000.23,0000.17,0000.23,0000.01,-000.01,17.6,23.7,05.8,03.9,0661.9,31.0
2021-06-30T10:57:00Z,00000200,40000000,,,,,,,0000.13,0000.37,0000.22,17.6,23.8,05.1,03.5,0662.0,31.0
2021-06-30T10:58:00Z,00000200,60000000,,,,,,,-000.43,-000.20,-000.26,17.4,23.8,05.8,03.9,0660.9,31.0
2021-06-30T10:59:00Z,00000200,20000000,,,,,,,0000.11,-000.08,0000.07,17.4,23.9,05.7,03.8,0660.9,31.0
